Regional Weather Roundup
Issued by NWS Upton, NY

Current Version | Previous Version | Text Only | Print | Product List | Glossary On
Versions: 1 2 3 4 5 6 7 8 9 10 11 12 13 14 15 16 17 18 19 20 21 22 23 24 25 26 27 28 29 30 31 32 33 34 35 36 37 38 39 40 41 42 43 44 45 46 47 48 49 50
596
ASUS41 KOKX 271209
RWROKX

REGIONAL WEATHER ROUNDUP
NATIONAL WEATHER SERVICE NEW YORK NY
800 AM EDT SAT MAY 27 2017

NOTE: "FAIR" INDICATES FEW OR NO CLOUDS BELOW 12,000 FEET WITH NO
SIGNIFICANT WEATHER AND/OR OBSTRUCTIONS TO VISIBILITY.

NYZ071-072-176-178-NJZ106-104-271300-
NEW YORK CITY METRO AREA

CITY           SKY/WX    TMP DP  RH WIND       PRES   REMARKS
Central Park   MOSUNNY   63  55  75 VRB3      29.90S
Wall St Helipt SUNNY     63  55  75 W6        29.88S
Bronx Bot Gard   N/A     64  52  63 SW5       29.90S
LaGuardia APRT MOSUNNY   65  54  67 NW9       29.87S
Kennedy INTL   PTSUNNY   66  56  70 NW12      29.88S
Breezy Point     N/A     59 N/A N/A W7          N/A
Newark/Liberty PTSUNNY   64  56  75 CALM      29.87S
Teterboro      SUNNY     64  55  72 CALM      29.86S
$$

NYZ177-179-078>081-271300-
LONG ISLAND NEW YORK

CITY           SKY/WX    TMP DP  RH WIND       PRES   REMARKS
Jones Beach      N/A     63 N/A N/A N9          N/A
Matinecock PT  NOT AVBL
Farmingdale    PTSUNNY   62  53  72 N7        29.88R
MacArthur/ISP  PTSUNNY   63  55  75 N8        29.87R
Shirley        MOSUNNY   62  55  77 NW8       29.87S
Mt Sinai Harb    N/A     59 N/A N/A NW2         N/A
Westhampton    MOSUNNY   63  51  65 NW12      29.88S
East Hampton   CLOUDY    58  52  78 N5        29.86R
Montauk          N/A     58  54  86 NW6       29.87R
$$

NYZ052-065-067-271300-
HUDSON VALLEY

CITY           SKY/WX    TMP DP  RH WIND       PRES   REMARKS
White Plains   MOSUNNY   62  53  72 N7        29.86F
Larchmont Harb   N/A     59 N/A N/A NE6         N/A
Croton O-T Hud   N/A     63 N/A N/A E3          N/A
Newburgh       PTSUNNY   59  55  88 CALM      29.89S
Montgomery     CLOUDY    61  55  81 CALM      29.87S
Poughkeepsie   CLOUDY    58  53  84 CALM      29.88R
Albany         PTSUNNY   56  51  84 NW5       29.89R
$$

NJZ001-105-106-008-010-013-015-019>022-104-271300-
NEW JERSEY

CITY           SKY/WX    TMP DP  RH WIND       PRES   REMARKS
Newark/Liberty PTSUNNY   64  56  75 CALM      29.87S
Teterboro      SUNNY     64  55  72 CALM      29.86S
Caldwell       PTSUNNY   63  54  72 SW5       29.88S
Somerville     MOSUNNY   64  56  75 CALM      29.87R
Linden         CLOUDY    61  55  78 CALM      29.88S
Perth Amboy      N/A     61 N/A N/A W6          N/A
Sussex         CLOUDY    58  57  97 SW3       29.89S
Andover          N/A     59  55  87 CALM      29.89S
Trenton        SUNNY     63  54  72 NW8       29.88S
Millville      SUNNY     64  56  75 NW6       29.91R
Atlantic City  SUNNY     64  53  67 NW9       29.90R
Wrightstown    SUNNY     64  54  71 W6        29.87S
Toms River     SUNNY     63  55  75 NW7       29.90S
Belmar         SUNNY     63  55  75 W8        29.90
$$

PAZ047>061-062-071-271300-
EASTERN PENNSYLVANIA

CITY           SKY/WX    TMP DP  RH WIND       PRES   REMARKS
Philadelphia   MOSUNNY   65  52  62 NW13      29.90R
Allentown      SUNNY     62  53  72 W7        29.89F
Scranton       CLOUDY    58  53  84 SW7       29.90R
$$

CTZ002-004>006-009-010-012-RIZ004-006-007-MAZ004-011-015-271300-
SOUTHERN NEW ENGLAND
 IN CT

CITY           SKY/WX    TMP DP  RH WIND       PRES   REMARKS
Bradley INTL   CLOUDY    57  48  72 NW7       29.87R
Hartford       CLOUDY    59  47  64 NW9       29.87R
Danbury        CLOUDY    57  53  86 W5        29.89S
Wtrbury/Oxford MOSUNNY   57  48  72 N8        29.88S
Bridgeport     CLOUDY    63  52  67 NW7       29.86F
Meriden        CLOUDY    58  52  80 CALM      29.87S
New Haven      MOSUNNY   60  53  77 NW9       29.86F
Chester        CLOUDY    57  52  82 N8        29.87R
Groton         CLOUDY    59  51  75 NW7       29.86R
Wilimantic     CLOUDY    57  50  77 N6        29.86R

 IN RI

CITY           SKY/WX    TMP DP  RH WIND       PRES   REMARKS
Providence     MOSUNNY   58  50  75 N13       29.84R
Block Island   CLOUDY    57  52  83 NW7       29.86R
Westerly       CLOUDY    59  51  75 NW7       29.86R
 IN MA

CITY           SKY/WX    TMP DP  RH WIND       PRES   REMARKS
Boston         PTSUNNY   57  52  83 W7        29.84R
Worcester      MOSUNNY   53  43  68 N13       29.84S
Westfield      CLOUDY    55  49  80 CALM      29.87R
Provincetown   PTSUNNY   53  51  93 NW8       29.83S
Nantucket      CLOUDY    57  51  80 N10       29.83R
$$

ANZ330-335-338-340-345-350-353-355-271300-
COASTAL MARINE OBSERVATIONS


STATION/POSITION TIME  SKY/WX   TEMP    WIND        PRES    VSBY  WAVE
                                AIR SEA DIR/SP/G                  HT/PER
                 (UTC)          (F)     (DEG/KT/KT) (MB)    (MI)  (FT/S)
NY HARB ENTRANCE 1050            58 57  260/  8/ 10 1011.5          3/ 8
20 S FIRE ISLAND 1150            58 55  340/  4/  6 1011.2          4/ 8
GREAT SOUTH BAY  NOT AVBL
23 SSW MONTAUK P 1050            56 54              1011.2          4/ 8
15 E BARNEGAT LI 1130               58                N/A           3/ 8
HUDSON CANYON    1050            57 55  300/  8/  8 1011.4          4/ 7
KINGS POINT      1142            63 59   70/  2/  3 1011.4
EXECUTION ROCKS  1145            62                   N/A
CENTRAL LI SOUND 1100            57     300/  6/  8   N/A           0
EASTERN LI SOUND NOT AVBL
ROBBINS REEF     1142            62     290/  3/  4 1012.3
$$


>>>>>>>>>>>>>>>>>>>>>>>>>>>> KEY <<<<<<<<<<<<<<<<<<<<<<<<<<<
>                                                          <
>     SKY/WX - Sky Condition/Present Weather               <
>     TMP    - Temperature in Fahrenheit                   <
>     DP     - Dew Point in Fahrenheit                     <
>     RH     - Relative Humidity in Percent                <
>     WIND   - Direction (from) and Speed in MPH           <
>     PRES   - Mean Sea Level Pressure (inches of Hg)      <
>     WCI    - Wind Chill Index                            <
>     VSB    - VISIBILITY IN MILES                         <
>     HX     - HEAT INDEX                                  <
>     TC     - TEMPERATURE IN CELSIUS                      <
>     VRB    - VARIABLE WIND DIRECTION                     <
>                                                          <
>>>>>>>>>>>>>>>>>>>>>>>>>>>> KEY <<<<<<<<<<<<<<<<<<<<<<<<<<<




USA.gov is the U.S. government's official web portal to all federal, state and local government web resources and services.